Regional Weather Roundup
Issued by NWS

Home | Current Version | Previous Version | Text Only | Print | Product List | Glossary On
Versions: 1 2 3 4 5 6 7 8 9 10 11 12 13 14 15 16 17 18 19 20 21 22 23 24 25 26 27 28 29 30 31 32 33 34 35 36 37 38 39 40 41 42 43 44 45 46 47 48 49 50
328
ASUS43 KMKX 221000
RWRWI

WISCONSIN REGIONAL WEATHER ROUNDUP
NATIONAL WEATHER SERVICE MILWAUKEE/SULLIVAN WI
500 AM CDT TUE MAY 22 2018

NOTE: "FAIR" INDICATES FEW OR NO CLOUDS BELOW 12,000 FEET WITH NO
SIGNIFICANT WEATHER AND/OR OBSTRUCTIONS TO VISIBILITY.

WIZ001-002-006>008-014>016-023>028-221100-
NORTHWEST WISCONSIN

CITY           SKY/WX    TMP DP  RH WIND       PRES   REMARKS
SUPERIOR ARPT  CLOUDY    51  40  65 SW3       30.01S
ASHLAND        MOCLDY    52  49  89 CALM      30.02R
HAYWARD        CLOUDY    57  53  86 S6        30.03S
SIREN          CLOUDY    57  52  85 S3        30.03S
CUMBERLAND     CLOUDY    54  52  94 CALM      30.04R FOG
RICE LAKE      CLOUDY    55  54  96 CALM      30.05S FOG
CHETEK         CLOUDY    55  54  99 CALM      30.04R FOG
LADYSMITH      CLOUDY    54  53  97 S3        30.05S FOG
EAU CLAIRE     CLOUDY    54  54 100 E5        30.03R FOG
MENOMONIE      CLOUDY    55  55  98 E3        30.03S FOG
NEW RICHMOND   CLOUDY    56  55  94 SE3       30.03S
OSCEOLA        CLOUDY    58  54  86 CALM      30.05S
$$

WIZ003>005-009-010-017-018-221100-
NORTH CENTRAL WISCONSIN

CITY           SKY/WX    TMP DP  RH WIND       PRES   REMARKS
MANITOWISH WTR CLOUDY    52  52 100 SW5       30.03S
ARBOR VITAE    CLOUDY    53  51  91 CALM      30.03S
WOODRUFF       CLOUDY    53  51  91 CALM      30.03S
RHINELANDER    CLOUDY    53  50  89 NW3       30.04R
EAGLE RIVER    CLOUDY    51  47  86 CALM      30.03S
LAND O LAKES   CLOUDY    51  47  87 CALM      30.04S
PHILLIPS       CLOUDY    52  52 100 CALM      30.03S
TOMAHAWK       CLOUDY    49  48  96 CALM      30.04S
MEDFORD        CLOUDY    50  49  97 N3        30.03R FOG
MERRILL        CLOUDY    50  50 100 CALM      30.03F
$$

WIZ029-030-035-036-043>047-221100-
CENTRAL WISCONSIN

CITY           SKY/WX    TMP DP  RH WIND       PRES   REMARKS
WAUSAU         CLOUDY    50  49  96 NE3       30.01S
MOSINEE        LGT RAIN  48  48 100 NE3       30.03S
MARSHFIELD     CLOUDY    51  50  96 NW3       30.02R
STEVENS POINT  CLOUDY    49  49 100 CALM      30.02F FOG
WAUPACA        CLOUDY    53  52  97 CALM      30.02S FOG
WAUTOMA        CLOUDY    52  50  93 CALM      30.02S
WISC RAPIDS    CLOUDY    52  50  93 CALM      30.02S FOG
CAMP DOUGLAS   CLOUDY    52  52 100 CALM      30.02R
$$

WIZ011>013-019>022-031-037>040-048>050-221100-
NORTHEAST WISCONSIN

CITY           SKY/WX    TMP DP  RH WIND       PRES   REMARKS
ANTIGO         CLOUDY    47  47 100 CALM      30.03S FOG
SHAWANO        CLOUDY    52  50  92 NW3       30.01F
OCONTO         CLOUDY    50  48  94 CALM      30.02S
STURGEON BAY   FOG       49  48  97 CALM      30.02F VSB 1/2
GREEN BAY      CLOUDY    51  49  92 N5        30.01S
MANITOWOC      CLOUDY    48  48 100 N5        30.01S FOG
APPLETON       CLOUDY    50  50 100 N3        30.00S FOG
CLINTONVILLE   CLOUDY    51  49  93 N5        30.02S FOG
OSHKOSH        CLOUDY    52  50  93 NW5       30.00S FOG
$$

WIZ032>034-041-042-053>061-221100-
SOUTHWEST WISCONSIN

CITY           SKY/WX    TMP DP  RH WIND       PRES   REMARKS
LA CROSSE      CLOUDY    58  55  90 NE5       30.01R
SPARTA         CLOUDY    50  50 100 CALM      30.03R
VIROQUA        CLOUDY    54  54 100 E3        30.01S VSB 3/4
BOSCOBEL       CLOUDY    57  56  96 CALM      30.01R FOG
PRAIRIE DU CHI CLOUDY    59  58  96 NW5       30.00R FOG
PLATTEVILLE    CLOUDY    59  59 100 CALM      30.00S
$$

WIZ056-057-062-063-064-067-068-221100-
SOUTH CENTRAL WISCONSIN

CITY           SKY/WX    TMP DP  RH WIND       PRES   REMARKS
REEDSBURG      CLOUDY    52  52 100 CALM      30.02R FOG
BARABOO/DELLS  CLOUDY    51  50  97 CALM      30.02R FOG
LONE ROCK      CLOUDY    55  55 100 CALM      30.01R
MINERAL POINT  CLOUDY    57  57 100 CALM      30.00S FOG
MADISON        CLOUDY    52  51  97 N5        30.00S FOG
MIDDLETON      CLOUDY    53  53 100 NE3       30.01S
WATERTOWN      CLOUDY    50  50 100 CALM      30.00S FOG
MONROE         FOG       54  54 100 N3        29.99R VSB 1/4
JANESVILLE     CLOUDY    54  54 100 CALM      30.00R FOG
$$

WIZ051-052-058>065-066-070>072-221100-
SOUTHEAST WISCONSIN

CITY           SKY/WX    TMP DP  RH WIND       PRES   REMARKS
MILWAUKEE      FOG       49  48  97 NE7       29.99S VSB 1/4
WAUKESHA       CLOUDY    46  46 100 NW3       30.00S FOG
MILWAUKEE/TIMM FOG       48  46  93 CALM      30.00F VSB 3/4
RACINE         FOG       47  47 100 N6        30.01S VSB 1/4
BURLINGTON     FOG       49  49  99 N3        29.99S VSB 1/2
KENOSHA        CLOUDY    49  48  97 N3        29.99S FOG
FOND DU LAC    LGT RAIN  51  49  92 S5        30.01S FOG
SHEBOYGAN      FOG       49  49 100 N3        30.00S VSB 1/4
WEST BEND      CLOUDY    48  48 100 CALM      30.00S FOG
JUNEAU         CLOUDY    49  49  99 CALM      30.01S FOG
$$

LSZ147-162-221100-
LAKE SUPERIOR

STATION/POSITION TIME  TEMP    WIND        PRES    WAVE
                       AIR SEA DIR/SP/G            HT/PER
                 (UTC) (F)     (DEG/KT/KT) (MB)    (FT/S)
W MID LAKE BUOY  0850   38 36  220/  4/  6 1016.4R   0
DEVILS ISLAND    0900   46     220/  8/  9 1016.5F
SAXON HARBOR     0940   50     190/  2/  3 1015.9S
$$

LMZ867-665-643>646-221100-
LAKE MICHIGAN

STATION/POSITION TIME  TEMP    WIND        PRES    WAVE
                       AIR SEA DIR/SP/G            HT/PER
                 (UTC) (F)     (DEG/KT/KT) (MB)    (FT/S)
N MID LAKE BUOY  0940   42 37   10/  2/  2 1016.5F
NORTHPORT PIER   0940   49        CALM     1016.9S
KEWAUNEE LAKESHO 0930   45      20/  4/  6 1015.7F
SHEBOYGAN LAKESH 0900   45      20/ 12/ 14 1016.2F
PORT WASHINGTON  0940   49      50/  6/  8 1016.9S
ATWATER BUOY     0907   45 47   20/ 12/ 14 1015.7
MILWAUKEE LAKESH 0930   47      20/  6/  8   N/A
KENOSHA   LAKESH 0900   48                 1015.2
$$

TC  - TEMPERATURE IN CELSIUS
VSB - VISIBILITY IN STATUTE MILES
WCI - WIND CHILL INDEX
HX  - HEAT INDEX





USA.gov is the U.S. government's official web portal to all federal, state and local government web resources and services.